TimeCST,TemperatureF,Dew PointF,Humidity,Sea Level PressureIn,VisibilityMPH,Wind Direction,Wind SpeedMPH,Gust SpeedMPH,PrecipitationIn,Events,Conditions,WindDirDegrees,DateUTC
12:15 AM,32.0,30.2,93,29.91,10.0,NE,15.0,-,N/A,,Scattered Clouds,50,2013-02-26 06:15:00
12:35 AM,32.0,30.2,93,29.89,10.0,ENE,17.3,-,N/A,,Clear,60,2013-02-26 06:35:00
12:55 AM,33.8,30.2,87,29.89,10.0,ENE,16.1,-,N/A,,Clear,60,2013-02-26 06:55:00
1:15 AM,32.0,30.2,93,29.86,10.0,NE,19.6,-,N/A,,Scattered Clouds,50,2013-02-26 07:15:00
1:35 AM,32.0,30.2,93,29.86,10.0,ENE,17.3,-,N/A,,Scattered Clouds,60,2013-02-26 07:35:00
1:55 AM,33.8,30.2,87,29.85,10.0,ENE,19.6,25.3,N/A,,Mostly Cloudy,60,2013-02-26 07:55:00
2:15 AM,33.8,28.4,81,29.82,10.0,NE,20.7,25.3,N/A,,Scattered Clouds,50,2013-02-26 08:15:00
2:35 AM,33.8,28.4,81,29.81,10.0,ENE,20.7,-,N/A,,Scattered Clouds,60,2013-02-26 08:35:00
2:55 AM,33.8,28.4,81,29.80,10.0,ENE,18.4,-,N/A,,Scattered Clouds,60,2013-02-26 08:55:00
3:15 AM,33.8,28.4,81,29.79,10.0,ENE,19.6,26.5,N/A,,Mostly Cloudy,60,2013-02-26 09:15:00
3:35 AM,33.8,28.4,81,29.76,10.0,NE,20.7,26.5,N/A,,Mostly Cloudy,50,2013-02-26 09:35:00
3:55 AM,33.8,28.4,81,29.76,10.0,ENE,20.7,26.5,N/A,,Scattered Clouds,60,2013-02-26 09:55:00
4:15 AM,33.8,28.4,81,29.72,10.0,NE,21.9,29.9,N/A,,Scattered Clouds,50,2013-02-26 10:15:00
4:35 AM,33.8,28.4,81,29.70,10.0,NE,24.2,29.9,N/A,,Scattered Clouds,50,2013-02-26 10:35:00
4:55 AM,33.8,28.4,81,29.69,10.0,NE,23.0,29.9,N/A,,Scattered Clouds,50,2013-02-26 10:55:00
5:15 AM,33.8,28.4,81,29.67,10.0,NE,24.2,32.2,N/A,,Mostly Cloudy,50,2013-02-26 11:15:00
5:35 AM,33.8,28.4,81,29.68,10.0,NE,23.0,31.1,N/A,,Mostly Cloudy,50,2013-02-26 11:35:00
5:55 AM,33.8,28.4,81,29.74,10.0,East,19.6,26.5,N/A,,Mostly Cloudy,80,2013-02-26 11:55:00
6:15 AM,33.8,28.4,81,29.74,7.0,ENE,18.4,-,N/A,Snow,Light Snow,70,2013-02-26 12:15:00
6:35 AM,33.8,28.4,81,29.71,10.0,ENE,24.2,32.2,N/A,,Overcast,70,2013-02-26 12:35:00
6:55 AM,33.8,30.2,87,29.68,5.0,ENE,21.9,29.9,0.01,Snow,Light Snow,70,2013-02-26 12:55:00
7:15 AM,33.8,30.2,87,29.66,5.0,NE,20.7,31.1,0.01,Snow,Light Snow,50,2013-02-26 13:15:00
7:35 AM,33.8,30.2,87,29.65,4.0,NE,17.3,-,0.03,,Overcast,50,2013-02-26 13:35:00
7:55 AM,32.0,30.2,93,29.62,4.0,NE,17.3,-,0.05,,Overcast,50,2013-02-26 13:55:00
8:15 AM,32.0,32.0,100,29.58,5.0,NE,15.0,-,0.02,,Overcast,50,2013-02-26 14:15:00
8:55 AM,33.8,32.0,93,29.55,7.0,NE,13.8,20.7,0.02,,Unknown,50,2013-02-26 14:55:00
9:15 AM,33.8,32.0,93,29.54,2.5,ENE,12.7,-,0.03,,Overcast,60,2013-02-26 15:15:00
9:35 AM,33.8,32.0,93,29.56,2.0,ENE,12.7,-,0.11,Snow,Light Snow,70,2013-02-26 15:35:00
10:35 AM,33.8,32.0,93,29.54,3.0,East,9.2,-,0.05,Snow,Light Snow,80,2013-02-26 16:35:00
10:55 AM,33.8,32.0,93,29.54,3.0,East,9.2,-,0.08,,Clear,80,2013-02-26 16:55:00
11:15 AM,32.0,32.0,100,29.51,4.0,ENE,9.2,-,0.02,,Scattered Clouds,70,2013-02-26 17:15:00
11:35 AM,32.0,32.0,100,29.51,3.0,ENE,10.4,-,0.04,,Overcast,70,2013-02-26 17:35:00
11:55 AM,32.0,32.0,100,29.48,3.0,ENE,8.1,-,0.06,,Overcast,60,2013-02-26 17:55:00
12:15 PM,33.8,32.0,93,29.48,5.0,ENE,9.2,-,N/A,,Overcast,70,2013-02-26 18:15:00
12:35 PM,33.8,32.0,93,29.47,7.0,ENE,9.2,-,N/A,Snow,Light Snow,70,2013-02-26 18:35:00
12:55 PM,33.8,32.0,93,29.46,5.0,ENE,9.2,-,N/A,Snow,Light Snow,70,2013-02-26 18:55:00
1:15 PM,33.8,32.0,93,29.45,1.5,ENE,9.2,-,N/A,Snow,Light Snow,70,2013-02-26 19:15:00
1:35 PM,33.8,32.0,93,29.45,1.8,ENE,16.1,-,N/A,Snow,Light Snow,70,2013-02-26 19:35:00
1:55 PM,33.8,33.8,100,29.45,1.8,ENE,13.8,-,N/A,,Overcast,70,2013-02-26 19:55:00
2:15 PM,33.8,33.8,100,29.44,1.5,ENE,15.0,-,0.01,Rain,Light Rain,70,2013-02-26 20:15:00
2:35 PM,33.8,33.8,100,29.45,3.0,ENE,11.5,-,0.02,Snow,Light Snow,60,2013-02-26 20:35:00
2:55 PM,33.8,33.8,100,29.45,2.5,ENE,12.7,-,0.02,Snow,Light Snow,60,2013-02-26 20:55:00
3:15 PM,33.8,32.0,93,29.45,2.5,NE,6.9,-,0.01,Snow,Light Snow,40,2013-02-26 21:15:00
3:35 PM,33.8,33.8,100,29.45,3.0,NE,8.1,-,0.02,Snow,Light Snow,40,2013-02-26 21:35:00
3:55 PM,33.8,32.0,93,29.45,3.0,NNE,8.1,-,0.03,Snow,Light Snow,30,2013-02-26 21:55:00
4:15 PM,32.0,32.0,100,29.45,2.0,NE,8.1,-,0.01,Snow,Light Snow,40,2013-02-26 22:15:00
4:35 PM,32.0,32.0,100,29.45,1.8,NNE,5.8,-,0.02,Snow,Light Snow,30,2013-02-26 22:35:00
4:55 PM,32.0,32.0,100,29.45,3.0,NNE,6.9,-,0.02,Snow,Light Snow,30,2013-02-26 22:55:00
5:15 PM,32.0,32.0,100,29.46,4.0,NNE,8.1,-,N/A,,Overcast,20,2013-02-26 23:15:00
5:35 PM,32.0,32.0,100,29.46,4.0,NNE,9.2,-,N/A,,Overcast,20,2013-02-26 23:35:00
5:55 PM,32.0,32.0,100,29.47,5.0,NNE,8.1,-,N/A,,Overcast,30,2013-02-26 23:55:00
6:15 PM,32.0,32.0,100,29.46,4.0,North,6.9,-,N/A,Snow,Light Snow,10,2013-02-27 00:15:00
6:35 PM,32.0,32.0,100,29.46,5.0,North,6.9,-,N/A,Snow,Light Snow,10,2013-02-27 00:35:00
6:55 PM,32.0,32.0,100,29.46,5.0,North,8.1,-,N/A,Snow,Light Snow,10,2013-02-27 00:55:00
7:15 PM,33.8,33.8,100,29.47,7.0,North,6.9,-,N/A,,Overcast,360,2013-02-27 01:15:00
7:35 PM,32.0,32.0,100,29.47,5.0,North,5.8,-,N/A,,Overcast,10,2013-02-27 01:35:00
7:55 PM,32.0,32.0,100,29.47,2.0,North,5.8,-,0.01,Snow,Light Snow,360,2013-02-27 01:55:00
8:15 PM,32.0,32.0,100,29.47,1.8,North,5.8,-,0.01,Snow,Light Snow,350,2013-02-27 02:15:00
8:35 PM,32.0,32.0,100,29.47,2.0,North,5.8,-,0.02,Snow,Light Snow,350,2013-02-27 02:35:00
8:55 PM,32.0,32.0,100,29.47,4.0,North,6.9,-,0.02,Snow,Light Snow,360,2013-02-27 02:55:00
9:15 PM,32.0,32.0,100,29.47,3.0,North,4.6,-,N/A,Snow,Light Snow,360,2013-02-27 03:15:00
9:35 PM,32.0,32.0,100,29.47,3.0,North,5.8,-,N/A,Snow,Light Snow,350,2013-02-27 03:35:00
9:55 PM,32.0,32.0,100,29.47,3.0,NNW,3.5,-,N/A,,Overcast,340,2013-02-27 03:55:00
10:15 PM,32.0,32.0,100,29.47,3.0,NNW,4.6,-,N/A,,Overcast,340,2013-02-27 04:15:00
10:35 PM,32.0,32.0,100,29.47,3.0,NNW,3.5,-,N/A,,Overcast,340,2013-02-27 04:35:00
10:55 PM,32.0,32.0,100,29.47,3.0,NNW,3.5,-,N/A,,Overcast,330,2013-02-27 04:55:00
11:15 PM,32.0,32.0,100,29.47,3.0,NNW,3.5,-,N/A,Snow,Light Snow,340,2013-02-27 05:15:00
11:35 PM,32.0,32.0,100,29.47,3.0,Calm,Calm,-,N/A,Snow,Light Snow,0,2013-02-27 05:35:00
11:55 PM,32.0,32.0,100,29.48,3.0,Calm,Calm,-,N/A,Snow,Light Snow,0,2013-02-27 05:55:00